Regional Weather Roundup
Issued by NWS

Home | Current Version | Previous Version | Graphics & Text | Print | Product List | Glossary Off
Versions: 1 2 3 4 5 6 7 8 9 10 11 12 13 14 15 16 17 18 19 20 21 22 23 24 25 26 27 28 29 30 31 32 33 34 35 36 37 38 39 40 41 42 43 44 45 46 47 48 49 50

000
ASUS43 KOAX 280102
RWRNE

WEATHER ROUNDUP FOR NEBRASKA
NATIONAL WEATHER SERVICE OMAHA NE
800 PM CDT FRI MAY 27 2016

NOTES: SATELLITE DATA IS BEING USED TO AUGMENT CLOUD COVER ABOVE
       12000 FEET.
       "FAIR" INDICATES FEW OR NO CLOUDS BELOW 12,000 FEET WITH NO
       SIGNIFICANT WEATHER AND/OR OBSTRUCTIONS TO VISIBILITY.

  * THESE STATIONS DO NOT REPORT WEATHER SUCH AS RAIN...SNOW OR FOG.

NEZ001>004-019>022-054>056-280200-
NEBRASKA PANHANDLE

CITY           SKY/WX    TMP DP  RH WIND       PRES   REMARKS
SCOTTSBLUFF    MOSUNNY   60  45  57 CALM      29.86F
ALLIANCE       MOSUNNY   58  48  69 NE8       29.84S
CHADRON        MOSUNNY   62  44  51 CALM      29.84S
SIDNEY         PTSUNNY   55  48  77 N10       29.87R
$$

NEZ057>060-069>072-079>082-280200-
SOUTHWEST NEBRASKA

CITY           SKY/WX    TMP DP  RH WIND       PRES   REMARKS
NORTH PLATTE   LGT RAIN  62  51  67 NE17G31   29.73F
IMPERIAL       LGT RAIN  53  47  79 NW17      29.79F
LEXINGTON      CLOUDY    65  58  76 E3        29.72R
MCCOOK         CLOUDY    61  57  87 W9        29.74R
$$

NEZ005>010-023>029-035>040-094-280200-
NORTH CENTRAL NEBRASKA

CITY           SKY/WX    TMP DP  RH WIND       PRES   REMARKS
VALENTINE      SUNNY     66  46  48 N12       29.77S
AINSWORTH      PTSUNNY   65  51  60 N10       29.77R
BROKEN BOW     CLOUDY    67  57  70 N10       29.72R
O`NEILL        MOCLDY    68  56  66 NE10      29.73S
ORD            CLOUDY    69  57  65 NE8       29.68S
$$

NEZ041-046>049-061>064-073>077-083>087-280200-
SOUTH CENTRAL NEBRASKA

CITY           SKY/WX    TMP DP  RH WIND       PRES   REMARKS
GRAND ISLAND   CLOUDY    62  57  83 E14       29.69S
HASTINGS       LGT RAIN  64  61  90 CALM      29.70R
KEARNEY *      CLOUDY    64  59  82 E6        29.71R
YORK           TSTM      63  59  88 NE10      29.70S
$$

NEZ011>018-030>034-042>045-280200-
NORTHEAST NEBRASKA

CITY           SKY/WX    TMP DP  RH WIND       PRES   REMARKS
NORFOLK        LGT RAIN  69  58  67 S3        29.69R
ALBION         CLOUDY    64  56  75 E13G18    29.70R
BLAIR          CLOUDY    72  64  75 SE6       29.69S
FREMONT        TSTM      72  60  66 E10       29.69R VSB 1
TEKAMAH        CLOUDY    75  56  51 SE12      29.66F
$$

NEZ050>053-065>068-078-088>093-280200-
SOUTHEAST NEBRASKA

CITY           SKY/WX    TMP DP  RH WIND       PRES   REMARKS
LINCOLN        LGT RAIN  67  63  87 E9        29.67S
OMAHA EPPLEY   CLOUDY    74  62  66 SE14      29.69R
FALLS CITY     LGT RAIN  72  67  84 SE7       29.69S
PLATTSMOUTH    CLOUDY    73  65  77 E10       29.69F
$$

NEZ044-045-051>053-067-280200-
OMAHA AREA

CITY           SKY/WX    TMP DP  RH WIND       PRES   REMARKS
OMAHA EPPLEY   CLOUDY    74  62  66 SE14      29.69R
BLAIR          CLOUDY    72  64  75 SE6       29.69S
FREMONT        TSTM      72  60  66 E10       29.69R VSB 1
OFFUTT AFB     CLOUDY    72  64  75 E8        29.68F
PLATTSMOUTH    CLOUDY    73  65  77 E10       29.69F
$$




USA.gov is the U.S. government's official web portal to all federal, state and local government web resources and services.